• Join FlightAware (Why Join?)
  • Login
  • US Flag 
06:44AM EDT


 

Airport Tracker/Info


-or-


 

Live Flight TrackerFlight Track Log ✈ SKW5500 ✈ 06-Jun-2013 ✈ KASE - KDEN

Flight Track Log - Related Links

Times and Time Zones

All times are in EDT time to prevent confusion due to time zone crossing. See the SKW5500 flight status page for this flight to view local times or setup timezone preferences in your user account.

Time Position Orientation Groundspeed Altitude Reporting Facility
EDT Latitude Longitude Course Direction KTS MPH feet Rate Location/Type
06:07PM 39.2517 -106.8753 123° Southeast 175 201 9,300  Level Denver Center
06:08PM 39.2758 -106.9533 292° West 256 295 11,600 2,640 Climbing Denver Center
06:09PM 39.4089 -106.7994 101° East  Level FlightAware Approximate
06:09PM 39.3247 -107.0136 316° Northwest 274 315 14,800  Level Denver Center
06:10PM 39.3902 -106.6777 101° East  Level FlightAware Approximate
06:10PM 39.3628 -106.9403 56° Northeast 280 322 17,700  Level Denver Center
06:11PM 39.3681 -106.5570 104° East  Level FlightAware Approximate
06:11PM 39.3664 -106.8131 88° East 299 344 20,700  Level Denver Center
06:12PM 39.3371 -106.4408 123° Southeast  Level FlightAware Approximate
06:12PM 39.3692 -106.6900 88° East 344 396 21,000  Level Denver Center
06:13PM 39.3731 -106.5275 88° East 399 459 21,000  Level Denver Center
06:14PM 39.3767 -106.3919 88° East 396 456 21,000  Level Denver Center
06:15PM 39.3808 -106.2328 88° East 396 456 21,000  Level Denver Center
06:16PM 39.3825 -106.1108 89° East 394 453 21,000  Level Denver Center
06:17PM 39.3872 -105.9528 88° East 371 427 21,000 -300 Level Denver Center
06:18PM 39.3889 -105.8256 89° East 357 411 20,500 -840 Descending Denver Center
06:19PM 39.3917 -105.6978 88° East 358 412 19,300 -1,200 Descending Denver Center
06:20PM 39.3933 -105.5717 89° East 354 407 18,100 -660 Descending Denver Center
06:21PM 39.3975 -105.4333 88° East 359 413 18,000 -780 Descending Denver Center
06:22PM 39.4036 -105.2897 87° East 374 430 16,500 -1,440 Descending Denver Center
06:23PM 39.4089 -105.1708 87° East 339 390 15,100 -1,380 Descending Denver Center
06:24PM 39.4147 -105.0561 86° East 300 345 13,700 -1,080 Descending Denver Center
06:25PM 39.4197 -104.9569 86° East 279 321 12,900 -720 Descending Denver Center
06:26PM 39.4494 -104.8656 67° East 256 295 12,300 -660 Descending Denver Center
06:27PM 39.4900 -104.7969 53° Northeast 254 292 11,600 -600 Descending Denver Center
06:28PM 39.5531 -104.7586 25° Northeast 253 291 11,100 -780 Descending Denver Center
06:29PM 39.6231 -104.7189 24° Northeast 254 292 10,000 -1,140 Descending Denver Center
06:30PM 39.6744 -104.6861 26° Northeast 208 239 8,800 -1,260 Descending Denver Center
06:31PM 39.7239 -104.6536 27° Northeast 188 216 7,400 -1,380 Descending Denver Center